Location: Miles
(41.4492°N, 81.6087°W)
Time: 02:42:46
(UTC+00:00)

S-56A Canister/Altair - Pass Details

Date: 22 September 2024
Orbit: 636 x 2487 km, 38.9° (Epoch: 11 October)

Event Time Altitude Azimuth Distance (km) Brightness Sun altitude
Rises 02:04:38 0° 277° (W) 3,381 11.8 -29.6°
Reaches altitude 10° 02:06:51 10° 272° (W) 2,606 10.9 -29.9°
Enters shadow 02:12:50 52° 198° (SSW) 1,438 8.7 -30.9°
